711  
ASUS41 KLWX 220310  
RWRLWX  
 
REGIONAL WEATHER ROUNDUP  
NATIONAL WEATHER SERVICE BALTIMORE MD/WASHINGTON DC  
1100 PM EDT MON AUG 21 2017  
 
NOTE: "FAIR" INDICATES FEW OR NO CLOUDS BELOW 12,000 FEET  
WITH NO SIGNIFICANT WEATHER AND/OR S TO VISIBILITY
.  
TC=TEMPERATURE CELSIUS  
 
* =NON NWS SITE. STATION DOES NOT REPORT PRECIPITATION (E.G. RAIN,  
SNOW, ETC.), THUNDER, OR FOG.
 
 
DCZ001-MDZ009-015-VAZ040>042-051-053>054-220400-  
WASHINGTON METRO  
 
CITY SKY/WX TMP DP RH WIND PRES REMARKS
 
WASHINGTON NAT MOCLDY 78 74 87 S7 30.13S  
DULLES CLEAR 73 72 96 S6 30.13F  
ANDREWS AFB CLEAR 74 69 83 S6 30.12F  
FT BELVOIR CLEAR 72 70 94 SE3 30.12F  
QUANTICO CLEAR 78 74 87 SW6 30.13F  
COLLEGE PARK* CLEAR 75 70 85 CALM 30.12F  
LEESBURG* PTCLDY 75 72 88 S5 30.14F  
MANASSAS* PTCLDY 73 71 93 W3 30.14S  
GAITHERSBURG* PTCLDY 76 72 87 SW3 30.15S  
 

 
 
MDZ006>007-011-014-220400-  
BALTIMORE METRO  
 
CITY SKY/WX TMP DP RH WIND PRES REMARKS
 
BWI AIRPORT PTCLDY 73 73 100 CALM 30.12S  
MD SCIENCE CTR N/A 77 72 84 MISG 30.12S  
MARTIN STATE MOCLDY 77 73 88 S3 30.13S  
ANNAPOLIS CLEAR 78 76 93 S3 30.12F  
FORT MEADE* PTCLDY 70 68 94 CALM 30.14F  
 

 
 
MDZ012-015-019>023-220400-  
MARYLAND EASTERN SHORE  
 
CITY SKY/WX TMP DP RH WIND PRES REMARKS
 
OCEAN CITY CLOUDY 78 75 90 S6 30.16S  
SALISBURY MOCLDY 75 74 96 S3 30.15S  
BAY BRIDGE AP* PTCLDY 77 73 88 SW5 30.12F  
EASTON* CLEAR 78 74 85 S3 30.17  
 

 
 
MDZ017>025-220400-  
SOUTHERN MARYLAND  
 
CITY SKY/WX TMP DP RH WIND PRES REMARKS
 
PATUXENT RIVER PTCLDY 78 77 96 S6 30.13F  
ST INIGOES CLOUDY 80 77 90 S6 30.13S  
LEONARDTOWN* PTCLDY 75 73 94 CALM 30.15F  
 

 
 
MDZ003>005-220400-  
NORTH CENTRAL MARYLAND  
 
CITY SKY/WX TMP DP RH WIND PRES REMARKS
 
FREDERICK* CLOUDY 77 70 78 S3 30.15S  
HAGERSTOWN APT CLEAR 78 69 73 CALM 30.12S  
WESTMINSTER* PTCLDY 75 73 94 SW6 30.14S  
 

 
 
MDZ501>502-220400-  
WESTERN MARYLAND  
 
CITY SKY/WX TMP DP RH WIND PRES REMARKS
 
OAKLAND* CLEAR 68 64 88 SW5 30.22F  
CUMBERLAND* CLEAR 73 70 88 CALM 30.17F  
 

 
 
VAZ025>031-220400-  
SHENANDOAH VALLEY  
 
CITY SKY/WX TMP DP RH WIND PRES REMARKS
 
WINCHESTER* CLEAR 72 68 88 CALM 30.13F  
FRONT ROYAL* CLEAR 75 70 83 CALM 30.13F  
LURAY* CLEAR 72 72 100 SE5 30.16S  
NEW MARKET* CLEAR 72 70 92 CALM 30.15S  
STAUNTON* CLEAR 73 68 84 CALM 30.20R  
WAYNESBORO* CLEAR 74 71 89 SW5 30.20S  
 

 
 
WVZ021-048>050-054>055-220400-  
EASTERN WEST VIRGINIA PANHANDLE  
 
CITY SKY/WX TMP DP RH WIND PRES REMARKS
 
MARTINSBURG CLOUDY 74 70 87 SW3 30.12S  
PETERSBURG* CLOUDY 71 70 96 CALM 30.16F  
 

 
 
VAZ036>039-050-220400-  
CENTRAL FOOTHILLS  
 
CITY SKY/WX TMP DP RH WIND PRES REMARKS
 
CHARLOTTESVILL CLEAR 78 71 79 CALM 30.16R  
CULPEPER* CLEAR 71 69 93 CALM 30.14F  
ORANGE* CLEAR 70 70 100 CALM 30.15F  
GORDONSVILLE* PTCLDY 72 71 98 CALM 30.15S  
WARRENTON* CLEAR 71 67 86 CALM 30.14S  
 

 
 
VAZ055>057-220400-  
NORTH AND CENTRAL PIEDMONT  
 
CITY SKY/WX TMP DP RH WIND PRES REMARKS
 
FREDERICKSBRG* CLEAR 75 75 100 CALM 30.12F  
STAFFORD* PTCLDY 73 73 100 CALM 30.17F  
 

 
 
NCZ024-NYZ072-PAZ021-071-VAZ022-071-220400-  
OTHER REGIONAL OBSERVATIONS  
 
CITY SKY/WX TMP DP RH WIND PRES REMARKS
 
NEW YORK CITY CLEAR 78 70 76 MISG 30.13F  
PHILADELPHIA CLOUDY 78 73 84 S8 30.12F  
PITTSBURGH PTCLDY 76 72 87 S5 30.12F  
ROANOKE CLOUDY 74 71 91 SE3 30.22F  
RICHMOND PTCLDY 76 73 91 S8 30.15S  
RALEIGH PTCLDY 77 72 84 CALM 30.19R  
 

 
 
ANZ530>537-220400-  
MARINE OBSERVATIONS  
 
STATION/POSITION TIME TEMP WIND PRES
 
AIR SEA DIR/SP/G  
(UTC) (F) (DEG/KT/KT) (MB)  
THOMAS PT LIGHT 0300 79 81 200/ 10/ 11 N/A  
BALT KEY BRIDGE 0242 77 180/ 8/ 11 1019.5F  
COVE POINT 0242 79 200/ 6/ 8 1021.1F  
LEWISETTA 0242 80 85 210/ 5/ 5 1020.7S  
SOLOMONS ISLAND 0242 79 83 180/ 4/ 5 N/A  
PINEY POINT 0242 200/ 9/ 9 N/A  
 

 
 
 
 
CLICK HERE TO GO TO PREVIOUS BULLETINS.

The Nexlab VA Page
The Nexlab MD Page
The Nexlab WV Page Main Text Page